Location: Cactus School
(34.5700°N, 118.0931°W)
Time: 06:29:59
(UTC-07:00)

Vanguard 2 - Pass Details

Date: 01 May 2024
Orbit: 553 x 2914 km, 32.9° (Epoch: 22 May)

Event Time Altitude Azimuth Distance (km) Brightness Sun altitude
Exits shadow 00:41:02 69° 108° (ESE) 2,316 9.6 -40.1°
Drops below altitude 10° 00:55:09 10° 87° (E) 5,546 11.9 -40.1°
Sets 00:59:52 0° 87° (E) 6,699 12.4 -40.1°
